Date String (YYYY-MM-DD hh:mm:ss) UTC,Instrument flags,Ambient pressure (hPa),Sample flow (lpm),Bypass flow (lpm),Sample temperature (°C),Ambient temperature (°C),ASC tube jacket temperature (°C),LED temperature (°C),Box temperature (°C),Sample RH (%),Span deviation,Mass concentration (μg/m³),Mass concentration (μg/m³),Mass concentration (μg/m³)
DateTimeUTC,F1_M11,P_M11,Q1_M11,Q2_M11,T1_M11,T2_M11,T3_M11,T4_M11,T5_M11,U1_M11,ZSPAN_M11,X0_M11,X2_M11,X1_M11
2022-06-22 14:00:00,,0833.7,5.00,0.00,30.1,28.9,00.0,38.9,31.9,15.5,0000.0,0009.39,0003.98,0002.73
2022-06-22 14:01:00,,0833.7,5.01,0.00,30.1,29.0,00.0,38.9,31.9,15.8,0000.0,0009.45,0003.98,0002.72
2022-06-22 14:02:00,,0833.6,5.01,0.00,30.1,29.0,00.0,38.9,32.0,16.0,0000.0,0010.02,0004.01,0002.73
2022-06-22 14:03:00,,0833.6,4.99,0.00,30.1,29.1,00.0,39.0,32.0,16.1,0000.0,0010.05,0004.02,0002.75
2022-06-22 14:04:00,,0833.7,5.00,0.00,30.1,29.1,00.0,39.0,32.0,16.1,0000.0,0010.44,0004.04,0002.76
2022-06-22 14:05:00,,0833.6,5.01,0.00,30.2,29.1,00.0,39.0,32.0,16.3,0000.0,0010.47,0004.04,0002.77
2022-06-22 14:06:00,,0833.6,4.99,0.00,30.2,29.2,00.0,39.0,32.0,16.5,0000.0,0010.77,0004.05,0002.78
2022-06-22 14:07:00,,0833.7,5.01,0.00,30.2,29.2,00.0,39.0,32.0,16.6,0000.0,0010.60,0003.99,0002.78
2022-06-22 14:08:00,,0833.6,5.01,0.00,30.2,29.2,00.0,39.0,32.1,16.7,0000.0,0010.56,0003.98,0002.78
2022-06-22 14:09:00,,0833.6,5.00,0.00,30.2,29.0,00.0,39.0,32.0,16.8,0000.0,0010.43,0003.97,0002.78
2022-06-22 14:10:00,,0833.6,5.00,0.00,30.2,28.0,00.0,38.9,31.8,16.8,0000.0,0009.45,0003.94,0002.79
2022-06-22 14:11:00,,0833.6,4.99,0.00,30.1,27.6,00.0,38.8,31.7,17.0,0000.0,0009.27,0003.94,0002.80
2022-06-22 14:12:00,,0833.6,5.01,0.00,30.0,27.6,00.0,38.8,31.6,17.1,0000.0,0009.17,0003.94,0002.82
2022-06-22 14:13:00,,0833.6,5.00,0.00,30.0,27.7,00.0,38.8,31.6,17.2,0000.0,0008.95,0003.97,0002.82
2022-06-22 14:14:00,,0833.6,5.00,0.00,29.9,27.8,00.0,38.8,31.6,17.2,0000.0,0009.17,0004.03,0002.82
2022-06-22 14:15:00,,0833.6,5.01,0.00,29.9,28.0,00.0,38.8,31.6,17.4,0000.0,0009.08,0004.05,0002.84
2022-06-22 14:16:00,,0833.6,5.00,0.00,29.9,28.1,00.0,38.8,31.6,17.5,0000.0,0009.35,0004.10,0002.84
2022-06-22 14:17:00,,0833.6,4.99,0.00,29.9,28.2,00.0,38.8,31.6,17.6,0000.0,0009.27,0004.10,0002.83
2022-06-22 14:18:00,,0833.6,5.00,0.00,29.9,28.3,00.0,38.8,31.7,17.7,0000.0,0009.48,0004.17,0002.85
2022-06-22 14:19:00,,0833.6,5.00,0.00,29.9,28.5,00.0,38.8,31.7,17.7,0000.0,0009.86,0004.21,0002.87
2022-06-22 14:20:00,,0833.6,5.00,0.00,29.9,28.5,00.0,38.7,31.7,17.7,0000.0,0010.02,0004.20,0002.88
2022-06-22 14:21:00,,0833.6,5.00,0.00,29.9,28.6,00.0,38.8,31.7,17.7,0000.0,0010.10,0004.22,0002.89
2022-06-22 14:22:00,,0833.6,5.00,0.00,29.9,28.7,00.0,38.8,31.8,17.7,0000.0,0010.91,0004.31,0002.90
2022-06-22 14:23:00,,0833.6,4.99,0.00,29.9,28.8,00.0,38.8,31.7,17.7,0000.0,0011.66,0004.36,0002.92
2022-06-22 14:24:00,,0833.6,5.00,0.00,29.9,28.8,00.0,38.8,31.8,17.7,0000.0,0011.63,0004.34,0002.92
2022-06-22 14:25:00,,0833.6,5.01,0.00,29.9,28.9,00.0,38.8,31.8,17.9,0000.0,0012.12,0004.36,0002.92
2022-06-22 14:26:00,,0833.6,5.01,0.00,30.0,28.9,00.0,38.8,31.8,17.9,0000.0,0012.38,0004.38,0002.92
2022-06-22 14:27:00,,0833.7,4.99,0.00,30.0,29.0,00.0,38.8,31.9,18.0,0000.0,0012.22,0004.39,0002.94
2022-06-22 14:28:00,,0833.6,5.00,0.00,30.0,29.0,00.0,38.8,31.9,17.7,0000.0,0012.10,0004.41,0002.95
2022-06-22 14:29:00,,0833.6,5.01,0.00,30.0,29.0,00.0,38.8,31.9,17.8,0000.0,0012.46,0004.36,0002.94
2022-06-22 14:30:00,,0833.6,4.99,0.00,30.0,29.1,00.0,38.8,31.9,17.8,0000.0,0012.58,0004.37,0002.94
2022-06-22 14:31:00,,0833.6,5.01,0.00,30.0,28.6,00.0,38.8,31.8,17.8,0000.0,0012.46,0004.40,0002.94
2022-06-22 14:32:00,,0833.6,5.00,0.00,30.0,27.8,00.0,38.7,31.6,18.0,0000.0,0012.72,0004.40,0002.96
2022-06-22 14:33:00,,0833.6,5.00,0.00,29.9,27.4,00.0,38.7,31.5,18.1,0000.0,0012.27,0004.35,0002.96
2022-06-22 14:34:00,,0833.6,5.00,0.00,29.8,27.4,00.0,38.7,31.4,18.1,0000.0,0011.46,0004.32,0002.95
2022-06-22 14:35:00,,0833.5,4.99,0.00,29.8,27.5,00.0,38.6,31.4,18.2,0000.0,0011.49,0004.34,0002.94
2022-06-22 14:36:00,,0833.6,5.00,0.00,29.7,27.7,00.0,38.6,31.4,18.1,0000.0,0011.51,0004.30,0002.93
2022-06-22 14:37:00,,0833.6,5.01,0.00,29.7,27.8,00.0,38.6,31.4,18.1,0000.0,0010.82,0004.26,0002.94
2022-06-22 14:38:00,,0833.6,5.01,0.00,29.7,28.0,00.0,38.6,31.5,18.2,0000.0,0010.72,0004.22,0002.93
2022-06-22 14:39:00,,0833.5,5.01,0.00,29.7,28.1,00.0,38.6,31.5,18.3,0000.0,0010.69,0004.17,0002.93
2022-06-22 14:40:00,,0833.6,5.00,0.00,29.7,28.2,00.0,38.6,31.5,18.2,0000.0,0010.94,0004.18,0002.94
2022-06-22 14:41:00,,0833.5,5.01,0.00,29.7,28.3,00.0,38.6,31.5,18.1,0000.0,0010.62,0004.18,0002.94
2022-06-22 14:42:00,,0833.5,5.00,0.00,29.7,28.4,00.0,38.6,31.6,18.1,0000.0,0010.65,0004.18,0002.95
2022-06-22 14:43:00,,0833.6,5.00,0.00,29.7,28.5,00.0,38.6,31.6,18.0,0000.0,0010.71,0004.21,0002.93
2022-06-22 14:44:00,,0833.6,5.00,0.00,29.7,28.6,00.0,38.6,31.6,18.0,0000.0,0010.82,0004.24,0002.90
2022-06-22 14:45:00,,0833.5,5.01,0.00,29.8,28.6,00.0,38.6,31.6,18.1,0000.0,0011.60,0004.27,0002.89
2022-06-22 14:46:00,,0833.6,5.00,0.00,29.8,28.7,00.0,38.6,31.7,18.1,0000.0,0011.61,0004.24,0002.89
2022-06-22 14:47:00,,0833.5,4.99,0.00,29.8,28.8,00.0,38.6,31.7,18.0,0000.0,0011.47,0004.20,0002.90
2022-06-22 14:48:00,,0833.5,4.99,0.00,29.8,28.8,00.0,38.6,31.7,18.1,0000.0,0012.70,0004.20,0002.89
2022-06-22 14:49:00,,0833.6,4.99,0.00,29.8,28.9,00.0,38.6,31.8,18.1,0000.0,0012.96,0004.20,0002.88
2022-06-22 14:50:00,,0833.5,5.01,0.00,29.9,28.9,00.0,38.6,31.7,18.0,0000.0,0013.00,0004.19,0002.88
2022-06-22 14:51:00,,0833.6,5.01,0.00,29.9,28.9,00.0,38.6,31.7,18.0,0000.0,0012.61,0004.20,0002.88
2022-06-22 14:52:00,,0833.5,5.00,0.00,29.9,28.4,00.0,38.6,31.7,17.9,0000.0,0012.67,0004.14,0002.89
2022-06-22 14:53:00,,0833.5,4.99,0.00,29.8,27.6,00.0,38.5,31.5,18.0,0000.0,0013.34,0004.13,0002.89
2022-06-22 14:54:00,,0833.6,4.99,0.00,29.7,27.4,00.0,38.5,31.4,18.2,0000.0,0014.14,0004.08,0002.88
2022-06-22 14:55:00,,0833.6,5.01,0.00,29.7,27.4,00.0,38.5,31.4,18.2,0000.0,0014.57,0004.03,0002.90
2022-06-22 14:56:00,,0833.6,5.01,0.00,29.6,27.5,00.0,38.5,31.3,18.2,0000.0,0013.76,0003.94,0002.91
2022-06-22 14:57:00,,0833.6,4.99,0.00,29.6,27.6,00.0,38.5,31.3,18.3,0000.0,0013.63,0003.93,0002.90
2022-06-22 14:58:00,,0833.6,5.00,0.00,29.6,27.8,00.0,38.5,31.3,18.3,0000.0,0013.41,0003.92,0002.89
2022-06-22 14:59:00,,0833.6,5.00,0.00,29.6,27.9,00.0,38.5,31.4,18.3,0000.0,0012.35,0003.88,0002.88
